This is the latest recevied weather packets stored in our database for station/object K6GMW. If no packets are shown the sender has not sent any weather packets the latest 10 day(s).
| Time | Temp. | Humidity | Pressure | Rain* | Wind** | Luminosity | Snow |
|---|---|---|---|---|---|---|---|
| 1777819011 | 19.44° C | 64% | 1023.2 hPa | 0 mm | - | 586 W/m² | - |
| 1777818709 | 18.89° C | 66% | 1023.4 hPa | 0 mm | - | 566 W/m² | - |
| 1777818405 | 18.89° C | 64% | 1023.2 hPa | 0 mm | - | 546 W/m² | - |
| 1777818102 | 18.89° C | 64% | 1023.2 hPa | 0 mm | - | 526 W/m² | - |
| 1777817799 | 18.89° C | 70% | 1023.3 hPa | 0 mm | - | 505 W/m² | - |
| 1777817497 | 18.89° C | 68% | 1023.2 hPa | 0 mm | - | 487 W/m² | - |
| 1777817192 | 18.33° C | 68% | 1023.4 hPa | 0 mm | - | 464 W/m² | - |
| 1777816890 | 17.78° C | 68% | 1023.3 hPa | 0 mm | - | 443 W/m² | - |
| 1777816587 | 17.78° C | 65% | 1023.3 hPa | 0 mm | - | 422 W/m² | - |
| 1777816284 | 17.78° C | 69% | 1023.3 hPa | 0 mm | - | 402 W/m² | - |
| 1777815981 | 17.22° C | 67% | 1023.3 hPa | 0 mm | - | 378 W/m² | - |
| 1777815678 | 16.67° C | 74% | 1023.1 hPa | 0 mm | - | 360 W/m² | - |
| 1777815376 | 16.67° C | 76% | 1023.3 hPa | 0 mm | - | 341 W/m² | - |
| 1777815072 | 16.11° C | 77% | 1023.2 hPa | 0 mm | - | 317 W/m² | - |
| 1777814769 | 16.11° C | 80% | 1023.2 hPa | 0 mm | - | 297 W/m² | - |
| 1777814466 | 16.11° C | 89% | 1023.1 hPa | 0 mm | - | 282 W/m² | - |
| 1777814163 | 15° C | 97% | 1023.3 hPa | 0 mm | - | 257 W/m² | - |
| 1777813860 | 13.89° C | 98% | 1023.4 hPa | 0 mm | - | 236 W/m² | - |
| 1777813556 | 13.33° C | 98% | 1023.1 hPa | 0 mm | - | 224 W/m² | - |
| 1777813255 | 13.33° C | 98% | 1023.2 hPa | 0 mm | - | 212 W/m² | - |
| 1777812952 | 12.78° C | 99% | 1023.1 hPa | 0 mm | - | 196 W/m² | - |
| 1777812649 | 11.67° C | 99% | 1023.2 hPa | 0 mm | - | 175 W/m² | - |
| 1777812345 | 11.11° C | 99% | 1023.2 hPa | 0 mm | - | 139 W/m² | - |
| 1777812044 | 10.56° C | 99% | 1023.2 hPa | 0 mm | - | 88 W/m² | - |
| 1777811742 | 10.56° C | 99% | 1023.2 hPa | 0 mm | - | 83 W/m² | - |
* Rain latest hour (hover to see other rain measurements)
** Current wind speed in m/s (hover to see current wind gust speed)